When you browse on this site, cookies collect data to enhance your experience and personalize the content and advertising you see.
Visit our Privacy Policy to learn more. By continuing to use the site, you agree to this use of cookies and data.
  • In Hungary
  • List of Countries
  • For 7 days
  • Water Temperature
  • Satellite Maps
  • Weather Map
  • News
  • Weather Widgets
  • user-avatar
    Login

    Hourly Weather Peschiki

    Today, 16 November, Friday

    Time Temperature Precipitation Wind Pressure Humidity
    00:00 -2°C° 0 mm 1 mps 761 mmHg 76%
    01:00 -4°C° 0 mm 2 mps 761 mmHg 75%
    02:00 -2°C° 0 mm 1 mps 762 mmHg 71%
    03:00 -2°C° 0 mm 1 mps 762 mmHg 71%
    04:00 -2°C° 0 mm 1 mps 762 mmHg 70%
    05:00 -3°C° 0 mm 1 mps 762 mmHg 69%
    06:00 -5°C° 0 mm 2 mps 762 mmHg 68%
    07:00 -4°C° 0 mm 2 mps 763 mmHg 67%
    08:00 -4°C° 0 mm 2 mps 763 mmHg 65%
    09:00 -3°C° 0 mm 2 mps 763 mmHg 60%
    10:00 -2°C° 0 mm 2 mps 764 mmHg 55%
    11:00 -1°C° 0 mm 2 mps 764 mmHg 50%
    12:00 -1°C° 0 mm 2 mps 764 mmHg 51%
    13:00 -1°C° 0 mm 2 mps 764 mmHg 52%
    14:00 +1°C° 0 mm 1 mps 764 mmHg 59%
    15:00 +1°C° 0 mm 1 mps 764 mmHg 59%
    16:00 0°C° 0 mm 1 mps 764 mmHg 60%
    17:00 -3°C° 0 mm 2 mps 764 mmHg 60%
    18:00 -4°C° 0 mm 2 mps 764 mmHg 59%
    19:00 -4°C° 0 mm 2 mps 764 mmHg 57%
    20:00 -4°C° 0 mm 2 mps 764 mmHg 56%
    21:00 -2°C° 0 mm 1 mps 764 mmHg 54%
    22:00 -2°C° 0 mm 1 mps 764 mmHg 53%
    23:00 -2°C° 0 mm 1 mps 764 mmHg 51%

    Tomorrow, 17 November, Saturday

    Time Temperature Precipitation Wind Pressure Humidity
    00:00 -2°C° 0 mm 1 mps 764 mmHg 50%
    01:00 -2°C° 0 mm 1 mps 764 mmHg 49%
    02:00 -2°C° 0 mm 1 mps 764 mmHg 48%
    03:00 -2°C° 0 mm 1 mps 764 mmHg 47%
    04:00 -3°C° 0 mm 0 mps 764 mmHg 47%
    05:00 -3°C° 0 mm 0 mps 763 mmHg 46%
    06:00 -2°C° 0 mm 1 mps 763 mmHg 46%
    07:00 -2°C° 0 mm 1 mps 763 mmHg 46%
    08:00 -2°C° 0 mm 1 mps 763 mmHg 46%
    09:00 -1°C° 0 mm 1 mps 763 mmHg 45%
    10:00 0°C° 0 mm 1 mps 762 mmHg 44%
    11:00 +1°C° 0 mm 1 mps 762 mmHg 43%
    12:00 +1°C° 0 mm 1 mps 761 mmHg 46%
    13:00 +1°C° 0 mm 1 mps 761 mmHg 49%
    14:00 -1°C° 0 mm 2 mps 760 mmHg 51%
    15:00 -1°C° 0 mm 2 mps 759 mmHg 55%
    16:00 -2°C° 0 mm 2 mps 759 mmHg 58%
    17:00 -3°C° 0 mm 2 mps 758 mmHg 61%
    18:00 -4°C° 0 mm 3 mps 758 mmHg 62%
    19:00 -4°C° 0 mm 3 mps 757 mmHg 63%
    20:00 -4°C° 0 mm 3 mps 756 mmHg 63%
    21:00 -2°C° 0 mm 3 mps 756 mmHg 66%
    22:00 -2°C° 0 mm 3 mps 755 mmHg 68%
    23:00 -3°C° 0 mm 4 mps 754 mmHg 70%

    Day after tomorrow, 18 November, Sunday

    Time Temperature Precipitation Wind Pressure Humidity
    00:00 -3°C° 0 mm 4 mps 753 mmHg 74%
    01:00 -3°C° 0 mm 4 mps 753 mmHg 78%
    02:00 -3°C° 0 mm 4 mps 752 mmHg 82%
    03:00 -3°C° 0.1 mm 4 mps 751 mmHg 85%
    04:00 -3°C° 0.1 mm 4 mps 750 mmHg 88%
    05:00 -3°C° 0.1 mm 4 mps 749 mmHg 91%
    06:00 -1°C° 0.1 mm 3 mps 748 mmHg 92%
    07:00 -1°C° 0.1 mm 3 mps 748 mmHg 93%
    08:00 -1°C° 0.1 mm 3 mps 748 mmHg 94%
    09:00 -1°C° 0.2 mm 3 mps 747 mmHg 94%
    10:00 0°C° 0.2 mm 3 mps 747 mmHg 94%
    11:00 +1°C° 0.2 mm 2 mps 747 mmHg 94%
    12:00 +1°C° 0 mm 2 mps 746 mmHg 94%
    13:00 +1°C° 0 mm 2 mps 746 mmHg 95%
    14:00 +2°C° 0 mm 1 mps 746 mmHg 96%
    15:00 +2°C° 0.1 mm 1 mps 746 mmHg 96%
    16:00 +2°C° 0.1 mm 1 mps 745 mmHg 97%
    17:00 +2°C° 0.1 mm 1 mps 745 mmHg 97%
    18:00 +1°C° 0 mm 1 mps 745 mmHg 97%
    19:00 +1°C° 0 mm 1 mps 745 mmHg 97%
    20:00 0°C° 0 mm 0 mps 745 mmHg 97%
    21:00 0°C° 0.1 mm 0 mps 745 mmHg 97%
    22:00 +1°C° 0.1 mm 1 mps 746 mmHg 97%
    23:00 +1°C° 0.1 mm 1 mps 746 mmHg 97%

    19 November, Monday

    Time Temperature Precipitation Wind Pressure Humidity
    00:00 +1°C° 0.1 mm 1 mps 746 mmHg 97%
    01:00 +1°C° 0.1 mm 1 mps 746 mmHg 97%
    02:00 0°C° 0.1 mm 0 mps 747 mmHg 97%
    03:00 +1°C° 0.1 mm 1 mps 747 mmHg 97%
    04:00 +1°C° 0.1 mm 1 mps 747 mmHg 97%
    05:00 +1°C° 0.1 mm 1 mps 747 mmHg 97%
    06:00 +1°C° 0.1 mm 1 mps 748 mmHg 96%
    07:00 +1°C° 0.1 mm 1 mps 748 mmHg 96%
    08:00 -1°C° 0.1 mm 2 mps 749 mmHg 96%
    09:00 -1°C° 0.1 mm 2 mps 749 mmHg 95%
    10:00 -1°C° 0.1 mm 2 mps 749 mmHg 93%
    11:00 +1°C° 0.1 mm 2 mps 750 mmHg 92%
    12:00 +1°C° 0 mm 2 mps 750 mmHg 91%
    13:00 +1°C° 0 mm 2 mps 750 mmHg 90%
    14:00 +1°C° 0 mm 2 mps 750 mmHg 89%
    15:00 +1°C° 0.1 mm 2 mps 750 mmHg 90%
    16:00 -1°C° 0.1 mm 2 mps 750 mmHg 92%
    17:00 -1°C° 0.1 mm 2 mps 751 mmHg 93%
    18:00 -1°C° 0.1 mm 2 mps 751 mmHg 93%
    19:00 -1°C° 0.1 mm 3 mps 751 mmHg 93%
    20:00 -2°C° 0.1 mm 3 mps 751 mmHg 93%
    21:00 -2°C° 0.1 mm 3 mps 752 mmHg 90%
    22:00 -2°C° 0.1 mm 3 mps 752 mmHg 88%
    23:00 -4°C° 0.1 mm 3 mps 752 mmHg 85%

    20 November, Tuesday

    Time Temperature Precipitation Wind Pressure Humidity
    00:00 -4°C° 0 mm 3 mps 752 mmHg 84%
    01:00 -4°C° 0 mm 2 mps 752 mmHg 83%
    02:00 -4°C° 0 mm 2 mps 752 mmHg 81%
    03:00 -4°C° 0 mm 2 mps 752 mmHg 81%
    04:00 -4°C° 0 mm 2 mps 752 mmHg 81%
    05:00 -5°C° 0 mm 2 mps 752 mmHg 81%
    06:00 -5°C° 0 mm 3 mps 752 mmHg 82%
    07:00 -5°C° 0 mm 3 mps 752 mmHg 83%
    08:00 -5°C° 0 mm 3 mps 752 mmHg 85%
    09:00 -4°C° 0 mm 3 mps 751 mmHg 85%
    10:00 -2°C° 0 mm 3 mps 751 mmHg 86%
    11:00 -2°C° 0 mm 3 mps 751 mmHg 86%
    12:00 -1°C° 0 mm 3 mps 751 mmHg 87%
    13:00 -1°C° 0 mm 3 mps 751 mmHg 88%
    14:00 -1°C° 0 mm 2 mps 750 mmHg 88%
    15:00 -1°C° 0 mm 2 mps 750 mmHg 90%
    16:00 -1°C° 0 mm 2 mps 750 mmHg 91%
    17:00 -2°C° 0 mm 2 mps 750 mmHg 93%
    18:00 -2°C° 0.1 mm 2 mps 749 mmHg 93%
    19:00 -2°C° 0.1 mm 2 mps 749 mmHg 94%
    20:00 -2°C° 0.1 mm 2 mps 749 mmHg 95%
    21:00 -2°C° 0.1 mm 2 mps 749 mmHg 95%
    22:00 0°C° 0.1 mm 1 mps 749 mmHg 95%
    23:00 0°C° 0.1 mm 1 mps 749 mmHg 96%

    21 November, Wednesday

    Time Temperature Precipitation Wind Pressure Humidity
    00:00 0°C° 0 mm 1 mps 749 mmHg 95%
    01:00 -2°C° 0 mm 2 mps 749 mmHg 95%
    02:00 -2°C° 0 mm 2 mps 749 mmHg 95%
    03:00 -2°C° 0 mm 2 mps 749 mmHg 95%
    04:00 -2°C° 0 mm 2 mps 749 mmHg 95%
    05:00 -2°C° 0 mm 2 mps 749 mmHg 95%
    06:00 -2°C° 0 mm 2 mps 749 mmHg 95%
    07:00 -1°C° 0 mm 3 mps 749 mmHg 94%
    08:00 -1°C° 0 mm 3 mps 749 mmHg 94%
    09:00 -1°C° 0 mm 3 mps 749 mmHg 93%
    10:00 -2°C° 0 mm 4 mps 749 mmHg 92%
    11:00 -1°C° 0 mm 4 mps 749 mmHg 91%
    12:00 -1°C° 0 mm 4 mps 749 mmHg 90%
    13:00 -1°C° 0 mm 4 mps 749 mmHg 89%
    14:00 -1°C° 0 mm 5 mps 749 mmHg 88%
    15:00 -1°C° 0 mm 5 mps 749 mmHg 89%
    16:00 -2°C° 0 mm 5 mps 749 mmHg 89%
    17:00 -2°C° 0 mm 5 mps 749 mmHg 89%
    18:00 -2°C° 0 mm 5 mps 749 mmHg 89%
    19:00 -4°C° 0 mm 5 mps 749 mmHg 88%
    20:00 -4°C° 0 mm 5 mps 749 mmHg 88%
    21:00 -4°C° 0 mm 5 mps 749 mmHg 87%
    22:00 -4°C° 0 mm 5 mps 749 mmHg 86%
    23:00 -4°C° 0 mm 6 mps 750 mmHg 85%
    Show more